RH
25 26 27 22 20 20 20 20 20 15 12 15 17 15 12 11 11 11 12 12 13 14 22 40 52 57 64 66 69 73 76 77 76 70 56 40 57 61 65 74 76 81 91 96
24 27 21 18 18 19 19 22 21 15 13 14 15 16 13 12 11 12 12 12 14 20 34 44 50 55 62 63 70 72 71 76 79 77 75 68 46 51 56 68 70 75 89 95
26 19 14 19 20 18 18 21 20 19 16 15 18 18 13 10 10 10 12 15 28 35 40 46 50 54 59 61 69 70 71 74 78 82 80 78 68 49 62 63 67 71 80 88
31 23 21 23 26 20 25 18 19 20 21 24 12 18 12 12 13 13 19 29 37 44 47 49 51 54 58 60 70 76 80 80 78 84 84 88 90 77 46 52 56 68 79 92
38 33 32 31 30 24 25 19 19 19 22 20 17 18 15 11 12 18 27 39 46 51 52 53 53 55 55 60 69 79 86 85 85 85 97 97 95 90 86 61 67 60 74 84
26 24 26 21 18 18 18 20 20 20 20 29 20 19 16 11 11 18 42 45 50 52 53 54 53 55 57 63 73 83 88 89 90 88 85 88 86 87 96 82 72 72 69 83
29 29 26 21 30 24 21 27 38 36 36 35 17 16 16 20 32 31 42 45 51 52 52 55 54 58 61 68 76 83 88 87 84 87 87 91 100 98 96 83 64 81 78 82
59 76 29 24 26 30 28 28 41 73 50 39 19 24 27 43 46 48 47 49 46 49 51 52 56 60 64 72 79 91 94 80 83 86 90 92 94 99 99 89 72 78 90 86
53 47 34 25 22 23 24 37 24 41 42 40 32 26 45 52 49 52 50 46 46 48 49 54 58 61 67 74 84 100 98 96 95 93 94 97 100 99 98 99 92 73 82 89
42 73 35 28 24 22 23 26 49 35 45 39 24 22 23 67 69 56 50 46 46 47 50 55 59 64 70 79 88 100 100 99 97 97 97 99 98 100 98 98 95 80 87 86
35 40 42 33 32 29 30 30 29 29 38 52 47 32 52 73 58 53 43 45 46 47 51 57 62 68 74 84 94 100 98 99 97 98 96 96 98 100 100 100 91 95 91 89
42 48 61 43 26 26 25 28 28 46 39 28 25 22 45 50 44 44 44 46 46 51 56 61 65 72 80 89 99 100 98 100 99 99 100 98 99 100 100 85 75 86 90 92
50 55 56 37 29 29 30 27 26 28 31 39 48 32 46 41 40 47 38 44 50 57 62 65 69 76 86 96 100 99 100 100 99 97 98 100 100 100 97 92 77 84 95 93
32 35 33 31 25 29 37 25 25 32 59 38 27 21 30 33 27 23 34 51 54 62 72 76 77 82 92 100 100 100 99 100 99 98 98 100 99 100 100 100 100 99 98 99
35 44 30 26 21 20 26 27 28 29 35 45 32 36 27 23 23 36 55 53 56 71 78 86 92 95 99 100 100 98 97 99 100 100 100 99 99 99 98 99 100 100 100 100
41 51 45 38 26 25 28 23 20 21 24 24 21 28 21 22 39 51 62 65 70 81 89 95 100 98 99 97 98 97 97 97 98 99 100 100 100 100 99 100 99 100 99 100
46 45 48 49 25 27 33 25 21 19 18 21 44 32 41 50 77 64 68 75 84 95 100 100 97 98 96 96 97 97 97 98 98 98 98 99 100 100 100 100 99 99 100 100
42 43 42 44 44 48 41 39 44 43 36 34 49 53 63 80 81 86 94 92 98 100 99 96 96 96 96 96 96 97 96 97 97 97 97 97 99 99 99 100 98 98 100 100
32 35 47 52 41 31 46 83 83 85 61 71 72 70 76 79 82 92 100 100 98 98 96 96 96 96 96 97 97 97 97 97 96 96 96 97 97 98 99 99 100 100 99 99
35 34 44 47 56 56 94 63 58 70 79 71 67 66 76 86 90 91 99 96 97 96 96 96 96 96 97 97 97 96 95 94 96 96 97 97 97 97 97 98 98 98 98 98
64 55 56 54 66 80 68 79 78 92 92 81 82 94 83 89 94 97 98 97 96 96 97 97 91 70 73 87 93 93 94 95 98 98 98 97 98 97 97 98 97 98 98 98
58 63 69 68 88 84 77 70 84 94 93 92 98 99 99 99 96 96 97 97 97 96 96 95 91 87 66 41 38 54 85 92 87 87 87 87 89 92 95 96 98 97 97 97
83 87 92 83 88 86 86 94 100 99 96 98 98 99 99 99 97 96 96 96 97 95 84 70 71 76 83 86 76 46 44 41 40 34 34 33 30 27 28 26 31 45 69 90
76 64 78 74 82 86 90 95 99 99 99 98 97 98 96 97 96 95 95 95 96 85 71 66 68 72 79 80 82 81 72 66 58 60 70 64 39 12 10 10 9 9 14 17
68 61 64 77 78 86 87 96 99 97 96 96 96 96 97 96 95 95 95 95 91 79 74 70 72 75 80 82 79 73 83 85 79 79 84 87 85 94 67 16 13 13 9 9
72 86 83 91 78 81 91 99 98 98 96 96 98 96 96 96 97 96 95 98 95 88 78 72 70 70 52 22 17 16 18 20 62 89 91 88 95 94 91 97 76 24 17 10
Wind_Speed
21 16 22 22 23 25 24 25 26 21 15 13 18 22 21 23 24 20 22 19 17 16 4 4 4 5 6 8 9 10 10 10 11 11 13 18 25 29 31 33 32 33 31 30
21 23 24 24 24 23 24 24 26 22 20 18 20 24 21 21 18 21 20 17 12 6 7 3 2 5 8 9 10 12 13 13 13 12 13 16 23 24 32 34 33 36 34 35
26 25 24 17 25 25 25 25 23 23 19 15 18 25 25 23 29 25 18 5 10 5 2 1 4 7 10 11 12 13 14 16 15 17 16 17 21 31 26 31 34 35 39 43
23 25 25 20 20 22 23 21 22 20 18 16 20 16 11 9 10 7 12 11 10 4 0 4 8 10 12 13 14 15 16 18 18 18 19 19 20 24 29 32 34 35 38 41
23 19 22 22 25 20 21 19 16 18 17 20 22 14 16 21 16 16 13 12 5 2 5 9 11 14 15 15 17 17 18 18 20 21 20 22 24 24 25 36 29 37 37 39
27 16 15 18 17 22 20 15 16 18 16 16 22 19 16 13 14 19 16 8 2 5 9 12 13 15 16 17 18 19 20 20 22 24 27 28 31 30 29 29 36 32 38 38
22 19 19 14 12 11 15 15 13 11 12 15 19 17 15 11 19 14 15 9 4 8 10 12 15 18 19 21 21 22 22 25 25 26 28 30 34 36 37 35 36 38 34 38
10 9 19 13 18 14 14 15 9 7 12 11 7 8 3 16 16 14 11 5 6 10 12 14 16 18 20 21 22 23 25 29 28 30 31 32 34 37 39 42 40 40 38 38
7 11 8 6 5 4 9 18 13 11 18 11 9 4 8 10 11 10 9 9 12 14 15 16 18 18 20 22 23 23 26 29 29 31 33 33 35 35 38 42 42 40 44 38
6 5 13 9 5 7 8 7 6 6 9 17 14 16 8 15 11 8 5 6 8 11 14 17 20 22 22 22 24 24 26 28 30 31 32 33 33 29 32 36 43 43 41 43
4 7 7 4 10 11 7 9 6 6 7 6 11 5 10 13 7 5 5 4 8 12 13 15 17 19 20 22 24 25 28 29 30 29 30 31 26 24 23 24 29 33 41 42
1 4 6 12 5 3 8 11 13 9 13 13 13 14 11 7 5 3 4 4 9 12 13 15 17 19 21 22 23 24 28 28 25 26 27 23 21 17 16 17 22 29 37 37
12 7 7 10 8 8 9 13 13 12 12 16 13 7 9 6 4 4 3 8 11 13 15 16 18 20 23 23 23 24 26 26 23 22 23 21 16 10 9 13 25 20 25 29
2 11 11 9 6 6 6 14 13 14 10 15 16 18 10 6 10 16 11 6 10 11 13 14 16 19 22 22 23 26 27 26 21 18 21 20 18 9 6 3 3 18 13 19
3 9 11 13 15 7 10 9 13 16 17 16 15 17 17 19 18 10 5 7 8 8 11 14 17 20 21 23 24 27 27 26 25 22 20 22 19 15 4 3 6 3 7 12
3 4 5 11 10 12 15 16 17 19 19 21 21 21 18 20 11 3 4 6 5 7 11 14 17 19 21 26 26 26 28 27 28 28 25 23 22 21 19 13 5 1 5 10
7 5 4 9 4 8 11 16 19 21 19 17 14 15 9 14 4 3 3 4 5 8 11 14 16 19 21 23 23 24 25 26 29 31 31 31 28 24 25 22 14 11 9 12
7 7 5 4 2 9 2 8 9 9 8 9 10 10 11 9 11 9 7 6 6 9 10 13 14 17 19 21 23 24 27 30 32 34 34 35 36 33 29 30 28 23 20 16
8 8 6 7 10 9 8 4 3 4 8 2 6 2 7 10 12 11 9 9 8 8 11 11 12 14 17 22 24 28 31 33 35 35 36 37 37 38 38 37 36 34 30 28
9 11 8 5 8 6 5 4 6 3 10 3 5 4 7 10 5 5 7 8 9 11 12 13 15 16 19 22 25 29 32 33 35 35 35 36 37 39 40 40 41 40 40 39
6 8 11 10 6 2 4 7 2 5 4 9 8 6 10 2 7 13 9 10 10 11 12 13 17 20 23 23 23 27 29 31 29 30 32 34 36 37 38 39 41 41 41 41
6 6 6 6 5 6 13 2 4 5 5 6 8 13 17 17 14 14 11 11 11 13 13 12 13 17 20 23 25 27 26 25 26 28 30 31 32 33 33 35 37 37 38 40
2 2 3 4 4 5 7 8 5 6 6 7 9 13 17 17 14 14 13 12 13 13 12 12 13 15 19 20 21 26 26 24 24 27 30 33 31 31 32 33 33 33 33 33
3 1 1 6 5 7 7 7 8 9 10 9 11 14 16 17 15 14 13 13 13 12 12 12 14 17 19 20 21 20 19 20 22 25 26 27 30 33 33 32 34 33 32 31
4 2 4 4 7 8 7 7 8 9 10 12 13 14 15 16 15 14 13 13 12 11 12 13 15 16 17 18 20 20 19 17 18 20 20 21 22 22 25 32 33 33 31 28
4 3 2 4 8 7 8 8 8 9 10 11 13 14 13 14 14 13 13 12 10 11 11 14 16 15 16 17 19 20 21 20 19 19 20 21 19 20 20 19 21 26 27 25
Wind_Direction
210 226 235 238 235 249 272 278 281 275 288 263 264 271 273 267 258 240 245 240 237 234 185 217 277 324 345 339 336 332 327 318 304 292 272 252 247 242 240 239 233 232 229 225
238 233 248 256 258 255 261 258 263 271 266 268 272 268 263 258 249 242 240 238 217 183 202 194 324 352 355 347 335 326 325 320 315 301 279 261 249 252 246 241 238 235 231 233
241 243 248 254 253 253 245 256 262 269 273 258 263 273 263 249 241 244 215 220 126 148 205 297 348 354 349 346 340 333 325 313 308 300 298 286 273 248 241 244 241 235 232 233
252 266 255 256 265 254 255 250 256 264 264 261 264 267 257 140 181 182 152 161 131 130 90 356 348 342 339 335 332 327 323 316 312 301 293 286 277 262 251 250 245 241 236 231
246 238 247 254 258 259 260 258 267 262 261 263 256 254 259 249 187 169 154 120 129 71 2 353 346 339 336 330 327 324 318 316 307 299 294 283 276 271 267 252 255 241 239 244
247 241 265 269 263 251 252 249 258 256 251 253 252 255 256 240 200 161 113 120 93 11 355 348 341 339 334 330 327 324 320 316 309 300 291 283 273 268 266 253 250 250 236 238
246 245 229 261 266 278 261 250 248 231 227 240 246 247 238 85 59 101 125 108 19 355 350 342 340 336 332 329 327 322 317 313 309 302 296 289 281 270 261 257 247 242 244 235
247 244 236 212 237 225 228 224 249 266 250 280 256 230 123 82 93 96 89 70 31 13 358 347 341 335 329 326 324 321 316 313 310 304 300 294 282 274 266 259 249 242 245 239
216 224 241 242 302 274 246 221 249 277 260 260 241 169 110 118 112 98 69 25 14 359 353 348 342 337 331 327 323 320 318 316 312 307 303 297 284 272 267 261 254 243 235 236
254 230 214 170 231 228 261 356 271 230 266 261 270 281 307 149 129 100 80 23 4 352 344 340 338 336 334 330 326 323 321 319 318 312 306 301 283 277 270 264 255 247 231 229
228 262 153 196 214 233 222 251 256 311 257 268 270 270 60 116 126 138 85 20 358 344 339 336 336 335 334 334 330 328 327 327 324 318 312 297 290 293 275 267 258 243 226 225
230 240 230 244 91 314 265 261 252 240 253 257 267 274 107 134 120 93 48 12 351 341 339 340 342 344 344 339 335 335 335 334 333 326 319 305 310 305 286 261 254 247 231 223
172 223 240 212 202 215 230 231 243 251 267 255 264 237 126 154 193 153 321 355 343 343 345 346 347 349 350 341 341 346 346 348 345 339 337 341 327 339 296 268 251 260 236 228
166 255 252 264 25 337 210 234 227 230 240 253 249 261 215 217 301 322 359 351 342 352 345 346 349 353 350 345 349 354 1 3 3 4 1 6 347 10 35 50 177 236 216 233
236 256 258 269 286 244 274 240 233 237 231 253 272 283 292 296 302 355 1 345 349 351 351 357 355 357 346 354 357 4 10 14 20 22 21 29 20 11 1 332 74 134 199 206
191 250 310 270 269 264 259 255 255 253 254 266 275 284 304 303 333 340 21 353 357 359 4 1 3 357 356 5 5 9 16 22 30 34 37 39 46 46 38 28 345 123 183 194
191 219 230 263 286 283 269 251 252 258 259 267 268 278 332 304 215 32 41 31 18 16 14 10 9 4 13 13 16 19 25 32 39 43 45 46 50 51 52 51 37 44 103 158
224 199 249 263 233 248 53 50 334 316 303 279 292 319 339 71 91 78 58 64 42 31 19 21 18 20 24 29 37 40 44 44 48 48 50 54 56 60 65 69 64 61 64 68
234 237 234 239 247 252 181 71 25 356 293 338 283 308 125 124 126 76 62 61 54 46 40 36 35 36 35 43 46 52 54 55 55 54 54 55 60 61 63 66 70 72 70 73
220 233 222 219 257 260 62 62 353 341 261 28 312 248 172 181 236 97 72 70 66 63 52 51 53 47 49 51 53 55 55 55 56 57 60 63 63 65 67 68 68 70 73 76
180 203 222 226 244 122 18 334 3 223 40 341 319 280 174 136 69 115 101 80 73 69 57 49 50 50 50 51 52 55 55 53 54 60 63 63 65 68 69 70 71 70 71 71
184 200 195 231 239 230 2 189 317 17 42 15 15 124 109 108 111 108 102 89 78 69 59 52 46 42 46 49 53 51 51 53 55 57 59 62 65 64 65 67 68 69 69 68
236 0 18 10 46 69 42 60 35 41 79 75 86 103 119 117 113 109 99 91 82 69 63 59 57 52 45 43 42 46 39 46 52 55 56 56 55 60 61 60 61 61 59 61
145 166 90 193 93 79 82 79 72 75 91 103 110 114 120 115 113 105 98 88 78 72 67 63 60 56 51 44 44 44 38 29 41 45 45 46 48 51 53 57 55 55 54 55
36 234 147 96 126 117 97 95 98 98 101 105 112 119 119 118 114 111 104 93 84 78 71 66 62 57 54 51 49 46 44 44 43 45 46 44 44 43 37 47 49 48 48 48
2 27 314 65 121 92 108 123 125 118 116 117 117 117 119 125 122 119 107 98 89 82 76 70 63 58 54 57 59 55 51 50 53 46 43 47 44 43 45 45 33 46 44 42